Location: Unspecified
(0.0000°N, 0.0000°E)
Time: 08:32:15
(UTC+00:00)

Daily predictions for brighter satellites

Satellite Brightness Start Highest point End
(mag) Time Altitude Azimuth Time Altitude Azimuth Time Altitude Azimuth
Spelda 4.1 18:04:55 10° WSW 18:07:51 75° SSE 18:19:46 10° E
DMSP B5D1-3 4.5 18:20:00 10° NNE 18:25:05 78° ESE 18:30:11 10° S
Delta 2 Rocket 3.4 18:25:54 10° NW 18:29:05 41° NE 18:32:05 11° ESE
BLOCK DM-SL R/B 4.3 18:26:13 10° W 18:31:21 87° N 18:48:18 10° E
ARIANE 42L R/B 4.2 18:11:14 10° W 18:32:11 68° N 18:36:14 10° ENE
Lacrosse 4 Rocket 1.2 18:29:56 10° S 18:33:44 58° ESE 18:37:35 10° NNE
SJ-12 3.6 18:30:51 10° SSE 18:34:38 76° ENE 18:38:23 10° N
Cosmos 1933 3.2 18:31:23 10° S 18:35:07 58° E 18:38:51 10° NNE
Cosmos 1544 Rocket 3.5 18:32:18 10° S 18:36:39 83° E 18:40:56 10° N
ARIANE 5 R/B 2.6 18:34:35 10° SSE 18:39:49 88° ENE 18:45:02 10° NNW
OAO 3 Rocket 4.1 18:36:53 10° SSW 18:40:38 25° SE 18:43:47 13° E
CZ-4 R/B 4.3 18:38:54 10° S 18:42:51 88° WSW 18:46:48 10° NNW
ARIANE 5 DEB (SYLDA) 3.8 18:34:29 10° W 18:44:49 89° SSW 18:48:07 14° E
Cosmos 2322 Rocket 3.8 18:44:10 10° NE 18:47:10 14° ENE 18:48:37 13° E
Thor Agena Rocket 3.7 18:43:42 10° S 18:48:44 73° WSW 18:53:42 10° NNW
HETE-2 4.5 18:46:38 10° W 18:50:08 62° N 18:52:46 17° E
Cosmos 2333 Rocket 3.0 18:47:01 10° NNE 18:52:04 32° ENE 18:55:33 18° SE
ARIANE 3 DEB 3.5 18:49:00 10° WSW 18:52:18 29° S 18:53:48 20° SE
SWIFT 4.1 18:52:01 10° SW 18:52:57 11° SSW 18:53:53 10° S
Cosmos 1892 Rocket 4.2 18:55:27 10° NNW 18:59:41 57° W 19:03:58 10° S
Tsikada Rocket 4.1 18:59:14 10° N 19:05:19 56° E 19:11:29 10° SSE
Hubble Space Telescope 2.7 19:04:24 10° S 19:05:15 12° S 19:05:15 12° S
NOAA 6 4.0 19:12:00 20° SSE 19:15:30 62° ENE 19:20:31 10° N
SJ-6B 3.9 19:23:21 25° NE 19:23:21 25° NE 19:25:11 10° NNE
Cosmos 2297 Rocket 2.1 19:17:59 10° SSW 19:23:38 86° ESE 19:29:15 10° NNE
Ariane H10 4.1 19:20:01 10° WSW 19:23:47 65° SSE 19:30:33 26° E
PSLV R/B 3.4 19:24:39 53° ESE 19:25:11 58° ENE 19:29:14 10° N
Spot 4 Rocket 3.9 19:22:41 26° SSE 19:25:36 75° ENE 19:30:41 10° N
Ariane H10+ 2.7 19:24:14 10° NW 19:25:26 14° NNW 19:25:26 14° NNW
BREEZE-M DEB (TANK) 4.4 19:23:48 10° WNW 19:25:45 23° SW 19:26:08 23° SSW
Cosmos 1758 Rocket 3.5 19:21:50 10° N 19:26:12 62° E 19:27:00 51° SE
YAOGAN 3 4.3 19:24:56 41° SSE 19:26:19 79° E 19:30:30 10° N
SL-16 R/B 2.2 19:22:41 10° NNW 19:28:20 85° WSW 19:31:36 26° SSE
SAR-Lupe-1 4.0 19:28:39 67° NE 19:28:39 67° NE 19:31:53 10° N
YAOGAN 1 4.5 19:26:16 10° SSW 19:29:52 27° WSW 19:33:28 10° NW
Cosmos 2278 3.6 19:25:57 10° N 19:31:35 74° ENE 19:33:37 41° SSE
H-10 deb 2.3 19:27:07 10° WNW 19:31:40 40° N 19:31:57 39° NNE
Cosmos 2034 Rocket 4.1 19:33:29 37° SE 19:35:32 51° E 19:41:37 10° NNE
Ariane H10+ 2.7 19:29:26 10° W 19:35:38 67° N 19:35:40 67° N
Cosmos 375 4.5 19:32:52 10° NNW 19:36:54 68° WSW 19:37:22 60° SSW
Cosmos 1486 Rocket 3.9 19:34:34 10° N 19:39:47 63° ENE 19:40:11 61° E
BLOCK DM-SL R/B 4.4 18:49:16 10° W 19:40:03 88° S 19:43:01 41° E
Cosmos 2151 3.1 19:37:05 10° N 19:40:25 59° NNE 19:40:25 59° NNE
Maqsat-H 4.0 19:34:53 10° W 19:41:11 80° S 20:39:50 10° E
Resurs 01 Rocket 2.8 19:40:40 18° SSW 19:43:26 40° WSW 19:47:30 10° NNW
Cosmos 1726 Rocket 3.8 19:46:51 57° WSW 19:47:11 60° W 19:51:09 10° N
Cosmos 2360 Rocket 2.1 19:42:12 10° N 19:47:42 63° ENE 19:47:42 63° ENE
Cosmos 2219 Rocket 3.4 19:45:09 10° N 19:48:26 28° NE 19:48:26 28° NE
Ariane 3 Deb 4.4 19:47:56 10° W 19:52:55 72° N 20:02:39 26° ENE
DELTA 2 R/B (1) 3.8 19:56:26 10° NW 20:01:19 60° N 20:01:19 60° N
Palapa 6 Rocket 3.7 19:59:23 10° WNW 20:04:37 81° NW 20:04:37 81° NW
SPOT 5 4.4 20:09:55 25° N 20:09:55 25° N 20:11:50 10° N
ARIANE 44LP R/B 4.0 20:03:56 10° WNW 20:10:35 34° NNW 20:10:35 34° NNW
Cosmos 2322 Rocket 3.4 20:25:40 10° NW 20:30:27 38° W 20:30:27 38° W
Cosmos 2227 Rocket 4.4 20:39:49 17° N 20:39:49 17° N 20:41:04 10° N
Cosmos 2333 Rocket 4.4 20:32:19 10° WNW 20:36:04 18° WSW 20:37:38 16° SW
BLOCK DM-SL R/B 4.3 20:40:02 10° W 21:12:37 - E 20:43:46 57° W
Milstar 3 4.1 21:03:43 10° WNW 21:07:14 36° WNW 21:07:14 36° WNW
